#timestamp,LO_Frequency,Hit,StdDev 
1712638815.5,286046984.8,N
1712638835.4,286046983.5,Y
1712638855.2,286046992.7,P
1712638875.0,286046989.7,P
1712638875.9,286046989.7,P
1712638895.8,286046985.6,Y
1712638915.6,286046997.6,P
1712638935.5,286047000.7,N
1712638955.3,286047002.4,N
1712638975.1,286047004.6,N
1712638995.9,286047005.1,N
1712639015.7,286047004.3,N
1712639035.5,286047003.5,N
1712639055.4,286047006.0,N
1712639075.2,286047001.4,N
1712639095.1,286047000.6,N
1712639096.0,286047000.6,N
1712639115.8,286046998.6,N
1712639135.7,286046997.7,N
1712639155.5,286046995.3,N
1712639175.3,286046996.5,N
1712639195.2,286046996.5,N
1712639215.0,286046999.3,N
1712639215.9,286046999.3,N
1712639235.8,286047003.3,N
1712639255.6,286047001.9,N
1712639275.4,286047005.9,N
1712639295.3,286047007.2,N
1712639315.1,286047001.9,N
1712639335.8,286047002.9,N
1712639355.7,286047003.7,N
1712639375.5,286047002.3,N
1712639395.4,286047002.5,N
1712639415.2,286047003.2,N
1712639435.0,286046999.7,N
1712639435.9,286046999.7,N
1712639455.8,286047003.8,N
1712639475.6,286047003.0,N
1712639495.4,286047003.2,N
1712639515.3,286047002.5,N
1712639535.1,286047002.9,N
1712639555.9,286047005.2,N
1712639575.7,286047004.6,N
1712639595.5,286047007.4,N
1712639615.4,286047006.8,N
1712639635.2,286047010.4,Y
1712639655.0,286047016.9,P
1712639655.9,286047016.9,N
1712639675.8,286047012.0,N
1712639695.6,286047009.7,N
1712639715.5,286047015.1,N
1712639735.3,286047010.9,N
1712639755.1,286047011.8,N
1712639775.9,286047004.8,N
1712639795.7,286047002.7,N
1712639815.5,286046997.6,N
1712639835.4,286046997.8,N
1712639855.2,286046993.2,N
1712639875.1,286046991.0,N
1712639876.0,286046991.0,N
1712639895.8,286046987.6,N
1712639915.6,286046985.7,N
1712639935.5,286046985.6,N
1712639955.3,286046988.6,N
1712639975.1,286046995.4,N
1712639995.9,286047001.6,N
1712640015.7,286047006.4,N
1712640035.6,286047009.9,N
1712640055.4,286047009.1,N
1712640075.2,286047010.5,N
1712640095.1,286047014.6,N
1712640096.0,286047014.6,N
1712640115.8,286047010.1,N
1712640135.7,286047014.5,N
1712640155.5,286047008.1,N
1712640175.3,286047013.8,N
1712640195.2,286047009.3,N
1712640215.0,286047002.0,N
1712640215.9,286047002.0,N
1712640235.7,286047002.1,N
1712640255.6,286046997.9,N
1712640275.4,286046993.6,N
1712640295.3,286046992.9,N
1712640315.1,286046994.2,N
1712640316.0,286046994.2,N
1712640335.8,286046993.6,N
1712640355.7,286046994.4,N
1712640375.5,286046998.5,N
1712640395.4,286046998.6,N
1712640415.2,286046997.7,N
1712640435.0,286046999.4,N
1712640435.9,286046999.4,N
1712640455.8,286046995.9,N
1712640475.6,286046995.7,N
1712640495.4,286046997.7,N
1712640515.3,286047000.2,N
1712640535.1,286046998.3,N
1712640555.9,286047000.1,N
1712640575.7,286046999.3,N
1712640595.5,286046997.6,N
1712640615.4,286046999.4,N
1712640635.2,286046998.5,N
1712640655.0,286047003.4,N
1712640655.9,286047003.4,N
1712640675.8,286047002.4,N
1712640695.6,286047000.1,N
1712640715.5,286047000.7,N
1712640735.3,286046998.1,N
1712640755.1,286047001.0,N
1712640775.9,286046997.2,N
1712640795.7,286046993.6,N
1712640815.5,286046993.4,N
1712640835.4,286046994.1,N
1712640855.2,286046994.5,N
1712640875.1,286046993.6,N
1712640876.0,286046993.6,N
1712640895.8,286046992.8,N
1712640915.6,286046990.8,Y
1712640935.5,286046992.3,P
1712640955.3,286046990.2,P
1712640975.1,286046991.5,N
1712640995.9,286046987.6,Y
1712641015.7,286046991.8,P
1712641035.6,286046994.4,P
1712641055.4,286046995.4,P
1712641075.2,286046994.5,Y
1712641095.1,286046997.3,P
1712641096.0,286046997.3,N
1712641115.8,286046996.3,N
1712641135.7,286046993.0,Y
1712641155.5,286046996.4,P
1712641205.4,286046987.6,E
1712641215.3,286046992.6,N
1712641235.1,286046998.2,P
1712641255.9,286047000.6,N
1712641275.7,286047001.2,N
1712641295.5,286046997.8,N
1712641315.4,286046996.2,N
1712641335.2,286046994.6,N
1712641355.1,286046996.4,N
1712641356.0,286046996.4,N
1712641375.8,286046996.0,N
1712641395.6,286046993.7,N
1712641415.5,286046992.0,Y
1712641435.3,286046992.2,P
1712641455.1,286046994.0,N
1712641475.9,286046988.5,P
1712641495.7,286046987.1,Y
1712641515.6,286046997.2,P
1712641535.4,286046996.5,N
1712641555.2,286046997.2,N
1712641575.1,286046998.4,N
1712641576.0,286046998.4,N
1712641595.8,286047001.2,N
1712641615.7,286046996.9,N
1712641635.5,286046998.1,N
1712641655.3,286047000.3,N
1712641675.2,286046998.8,N
1712641695.9,286046995.1,N
1712641715.7,286046992.2,Y
1712641735.6,286046993.3,P
1712641755.4,286046992.8,P
1712641775.3,286046991.5,P
1712641795.1,286046989.7,Y
1712641796.0,286046989.7,P
1712641815.8,286046996.7,N
1712641835.7,286046997.3,N
1712641855.5,286046993.7,N
1712641875.3,286046995.5,N
1712641895.2,286046996.2,N
1712641915.0,286046995.2,N
1712641915.9,286046995.2,N
1712641935.8,286046994.3,N
1712641955.6,286046991.7,Y
1712641975.4,286047002.4,P
1712641995.3,286047001.6,N
1712642015.1,286047003.4,N
1712642035.9,286047004.1,N
1712642055.7,286047003.1,N
1712642075.5,286047005.4,N
1712642095.4,286047008.9,N
1712642115.2,286047014.5,Y
1712642135.0,286047012.1,P
1712642135.9,286047012.1,N
1712642155.8,286047009.7,N
1712642175.6,286047010.1,N
1712642195.5,286047009.8,N
1712642215.3,286047011.2,Y
1712642235.1,286047014.8,P
1712642255.9,286047018.8,P
1712642275.7,286047015.8,P
1712642295.5,286047017.6,Y
1712642315.4,286047003.4,P
1712642335.2,286047001.4,N
1712642355.1,286047004.6,N
1712642356.0,286047004.6,N
1712642375.8,286047003.9,N
1712642395.6,286047006.6,N
